Theta_e
329 329 329 328 328 330 330 330 330 329 330 330 330 330 328 330 325 317 315 317 316 315 319 323 321 318 319 320 321 321 321 322 324 324 323 322 320 319 322 323 325 326 326 327 327 326 327 327 328 328 328 328 328 329 328 327 328 328 328 328 328 328 328 328 327 324 323 324 325 324 325 326 326 326 327 327 327 327 327 327 327 327 327 327 328
329 327 327 326 328 332 332 331 331 331 331 331 331 330 329 329 321 313 312 312 313 312 314 317 316 316 319 321 321 320 320 319 319 320 320 319 318 319 321 323 322 323 324 324 325 326 325 326 326 326 327 327 328 328 327 327 327 327 328 328 327 327 328 328 328 327 326 326 326 326 327 326 325 326 328 328 327 327 327 327 327 327 327 327 327
329 326 326 327 331 333 332 331 331 331 332 331 330 329 328 324 316 312 312 311 312 312 313 316 317 319 321 321 321 320 320 319 316 314 313 311 313 314 317 321 321 319 319 319 321 324 324 324 323 323 324 325 326 326 326 326 326 326 326 327 328 327 328 328 328 327 327 327 328 327 327 327 324 325 327 327 327 328 327 327 326 326 326 327 327
329 327 327 331 333 333 332 331 331 331 331 331 328 325 323 317 313 312 311 312 314 316 318 319 319 320 320 321 320 318 320 317 312 311 310 307 308 309 312 318 319 318 319 319 318 320 321 321 320 320 322 323 324 325 325 325 325 325 326 326 327 328 328 328 328 328 327 326 327 327 327 327 325 324 325 325 325 325 326 326 326 326 326 326 326
327 327 329 333 334 333 333 332 332 331 331 332 327 319 316 314 313 312 311 314 319 320 320 319 320 321 319 320 320 319 318 312 307 308 308 307 307 307 309 313 315 316 319 321 320 319 318 318 317 318 321 323 324 324 324 324 325 325 325 325 326 326 327 327 327 327 327 326 326 327 326 326 325 325 325 325 324 323 323 324 324 324 324 325 326
327 327 329 334 333 332 333 332 332 331 331 332 325 316 314 314 313 312 312 316 320 321 321 319 319 320 319 319 318 318 316 309 307 307 306 307 308 309 312 315 315 314 316 318 319 319 318 318 318 319 321 323 324 324 323 323 324 324 324 324 325 325 325 326 326 326 326 326 326 326 326 326 326 325 325 324 324 324 323 322 322 321 322 324 324
329 328 329 333 333 332 332 332 333 332 331 332 326 316 313 314 313 312 312 314 317 319 321 319 318 318 318 317 315 316 313 308 308 307 306 307 307 309 314 318 320 318 317 317 319 319 320 320 320 320 322 324 323 323 323 323 323 324 323 322 323 325 326 326 327 327 326 326 326 327 326 326 325 325 325 324 324 325 324 324 323 323 323 324 324
332 331 330 332 333 332 332 331 333 332 331 332 327 317 313 314 313 312 312 313 314 317 319 318 317 317 317 318 316 314 311 308 308 307 306 306 306 307 310 314 317 318 317 317 319 320 320 320 321 320 321 322 322 322 322 322 322 322 321 317 317 323 326 326 326 326 326 326 326 326 326 326 325 324 324 324 323 324 325 325 325 325 325 325 324
331 331 329 331 333 332 331 331 332 332 332 332 329 321 314 314 314 312 312 312 313 316 318 316 316 316 318 319 315 311 310 308 307 307 307 307 306 306 307 307 310 312 315 317 319 320 320 321 321 320 321 322 322 322 321 322 321 319 318 316 316 321 325 325 326 326 326 326 326 326 326 325 324 323 323 323 322 323 324 325 325 324 323 323 323
329 328 327 328 330 331 330 331 332 332 332 331 330 325 319 316 317 315 312 311 312 315 316 316 316 315 315 316 313 309 309 308 307 307 307 306 307 306 307 306 306 307 310 315 319 320 319 320 320 320 320 320 319 320 319 319 317 314 312 312 314 320 324 325 325 325 325 325 325 325 326 325 324 323 323 323 323 322 323 324 323 320 319 321 323
329 328 328 328 329 329 329 330 331 332 332 331 330 328 326 321 320 320 316 312 312 313 316 316 313 312 311 311 310 309 309 308 307 308 307 307 307 307 306 306 307 306 306 312 318 320 319 319 318 316 314 312 311 311 311 310 309 307 306 307 311 317 321 322 322 322 323 323 324 323 324 324 324 323 323 323 323 323 323 323 321 317 316 319 320
328 328 328 329 329 328 329 330 331 332 332 332 330 329 329 326 324 325 322 317 312 313 317 316 311 310 308 308 309 309 308 308 308 308 307 307 307 307 307 306 306 306 305 308 313 317 317 313 310 308 307 306 306 306 306 306 306 305 305 306 307 310 313 313 313 314 316 318 320 322 322 323 323 323 323 323 323 321 321 322 322 319 317 316 316
328 328 328 328 328 328 328 329 330 331 331 332 331 330 330 329 329 329 329 324 316 315 320 317 310 309 308 309 312 312 310 308 308 308 307 308 307 306 307 306 306 307 306 306 307 309 309 307 306 306 306 306 306 306 306 306 306 306 306 306 306 306 306 307 308 308 309 311 314 317 318 319 320 319 319 317 314 313 313 316 318 317 315 313 313
328 328 328 328 328 328 328 328 329 330 331 331 332 331 330 331 333 332 332 329 322 320 324 319 311 309 311 313 315 316 314 309 307 308 308 307 308 307 307 307 306 306 306 306 306 306 306 306 306 306 306 306 306 306 306 306 306 306 306 306 306 306 305 305 306 306 306 307 308 309 310 310 310 310 309 308 306 306 307 308 309 309 309 309 312
328 328 328 328 328 328 328 328 327 328 329 330 331 332 332 334 333 330 329 328 326 324 325 320 310 309 313 315 315 316 318 312 307 309 308 308 308 307 307 307 307 307 307 306 306 306 306 306 306 306 306 306 306 306 306 306 306 306 306 305 305 306 305 305 305 305 305 305 306 306 305 305 305 305 305 305 305 305 305 305 304 306 308 310 313
326 327 328 328 328 328 328 327 327 327 327 328 328 329 331 333 331 327 325 326 326 325 325 321 312 309 313 316 315 317 320 315 309 308 309 308 309 308 308 308 307 308 307 307 307 306 307 306 306 306 306 306 306 306 306 306 306 306 305 305 305 305 305 305 305 305 305 304 304 305 304 304 304 304 303 303 303 303 304 304 303 304 305 307 309
324 326 326 327 327 326 327 327 328 329 328 327 328 327 328 328 328 327 326 326 325 324 324 323 315 309 312 315 316 318 320 317 312 310 310 310 310 311 311 310 309 308 308 308 308 307 307 307 307 307 307 307 307 306 306 306 306 306 305 305 305 305 305 305 304 304 304 304 304 304 303 303 303 303 303 303 303 303 303 303 303 303 303 303 304
324 326 326 326 327 327 327 327 328 329 329 328 328 327 327 326 325 327 325 325 325 324 325 324 316 310 312 314 315 317 318 318 316 313 312 312 313 313 314 314 312 310 309 309 309 308 308 308 308 308 308 308 307 307 307 307 307 306 306 306 305 305 305 305 304 304 304 304 303 304 303 304 304 303 303 303 303 303 303 303 303 303 303 303 303
324 325 325 326 326 327 328 328 328 330 329 329 329 327 328 327 325 326 325 324 325 326 326 323 315 311 313 313 313 316 317 318 318 316 314 314 316 315 315 316 316 314 312 311 310 310 310 310 310 310 310 309 309 309 308 308 308 307 307 307 306 306 305 305 305 305 305 305 304 304 305 305 305 305 305 305 304 304 304 304 304 304 304 303 303
325 325 324 325 325 326 327 327 328 329 328 329 329 328 328 328 327 328 327 326 326 326 326 322 316 312 312 312 314 316 316 318 319 318 316 316 317 317 316 317 316 315 314 312 312 312 312 312 312 311 311 311 311 311 311 310 310 309 309 308 307 307 307 306 306 305 305 305 305 305 305 305 306 306 306 306 306 305 305 305 305 305 305 305 305
325 325 325 325 325 325 325 326 327 327 327 327 327 327 327 327 326 327 327 326 326 326 325 324 319 312 311 314 317 317 316 317 319 319 319 318 318 318 317 317 317 316 316 315 315 315 315 315 315 314 313 313 313 313 313 312 312 312 311 310 309 308 308 307 306 306 305 305 305 305 305 305 305 305 305 305 305 306 306 306 305 305 305 305 305
325 325 325 324 325 325 324 325 325 325 326 326 325 326 325 326 326 326 326 326 326 325 324 324 320 314 314 318 318 317 316 317 319 320 320 320 319 319 319 318 318 317 317 318 318 317 316 316 317 317 317 317 316 315 315 315 315 314 314 313 312 311 311 310 308 307 307 307 306 306 305 305 305 305 305 305 305 305 306 305 305 305 305 304 304
323 323 324 324 324 325 324 325 324 324 325 324 325 324 324 325 325 325 326 325 325 325 323 322 319 316 318 318 317 318 319 319 319 319 319 319 319 319 319 319 319 318 318 318 319 318 317 316 316 317 318 318 318 318 318 318 317 317 316 316 315 315 314 313 312 311 309 308 308 307 307 306 306 306 306 305 305 305 305 305 305 304 304 303 303
320 321 323 324 324 324 324 324 324 324 324 324 324 324 324 325 325 325 325 324 324 323 321 321 319 317 318 318 316 319 321 320 320 319 319 320 320 319 320 320 320 319 319 318 318 317 317 317 316 317 318 318 318 318 318 318 318 318 318 318 317 317 316 316 315 315 313 311 310 309 308 308 307 307 307 307 306 305 305 304 304 304 304 303 303
318 317 318 319 320 322 324 324 324 324 324 324 324 324 324 325 325 324 324 324 323 321 320 320 320 320 320 320 319 319 320 321 321 321 321 320 319 320 321 321 321 320 320 319 318 317 317 317 317 317 318 318 318 318 318 318 318 319 319 319 319 318 318 317 317 317 316 314 313 311 310 309 309 309 309 309 309 308 306 305 304 304 303 303 303
315 315 313 313 314 317 320 322 322 323 324 324 324 324 324 324 324 324 324 323 322 321 320 321 321 322 322 322 321 319 319 321 320 320 320 320 319 320 321 321 322 321 320 320 319 319 318 318 319 319 320 319 319 318 318 318 318 319 319 319 319 318 318 318 318 318 317 316 316 314 313 311 311 311 311 310 310 310 309 307 305 304 303 303 303
315 315 314 313 312 312 314 315 316 318 321 322 323 324 324 324 324 324 323 322 321 321 321 322 322 323 323 322 321 320 320 321 320 319 319 319 320 321 322 322 322 322 321 321 320 319 318 318 318 320 320 320 320 320 319 319 319 319 319 319 319 318 318 318 318 318 317 317 317 316 316 314 313 312 311 311 311 310 310 309 307 305 304 303 302
316 316 315 314 313 312 312 312 312 313 315 316 317 319 321 322 323 323 322 322 321 321 322 322 323 323 322 321 321 321 321 321 320 319 319 319 318 319 321 321 321 321 321 320 319 318 317 317 317 318 318 318 319 319 319 319 319 319 319 319 319 319 318 318 318 317 317 317 317 317 317 316 315 313 312 312 312 311 310 309 308 306 305 303 302
314 315 316 315 314 313 313 312 312 312 311 311 311 312 314 317 320 321 321 322 322 322 322 322 322 322 322 321 320 320 320 320 319 320 320 320 319 318 318 319 319 319 318 318 317 317 317 317 317 317 317 317 317 317 317 318 318 319 319 319 319 318 318 317 317 317 317 317 317 317 317 316 315 314 312 312 313 312 311 309 308 307 305 303 301
313 313 313 313 314 313 313 313 313 312 312 311 310 310 309 310 313 314 316 317 319 320 321 321 321 321 321 320 319 319 318 318 318 318 317 317 316 314 313 313 314 314 314 314 313 314 315 315 316 317 317 317 317 316 316 316 317 318 318 319 319 318 318 317 317 317 317 316 316 317 317 316 315 314 312 312 312 312 311 310 309 308 306 303 301
313 313 312 312 312 313 313 313 313 312 312 311 310 311 309 308 307 308 309 311 313 315 316 316 316 315 315 314 313 312 311 311 311 311 310 310 311 311 311 312 314 314 314 314 314 315 316 317 318 318 317 318 318 317 318 318 318 318 319 319 319 318 318 318 318 317 317 317 317 317 316 316 315 314 313 311 311 311 310 309 309 308 307 305 302
314 313 313 312 311 312 312 312 312 312 312 311 311 311 310 309 308 307 307 308 308 309 311 311 310 310 309 308 308 308 308 308 308 308 308 310 311 312 313 315 316 317 317 317 317 317 317 317 318 318 317 317 317 317 318 318 319 320 320 320 320 319 319 318 318 317 317 317 317 316 316 315 314 314 312 311 310 310 309 308 308 308 308 307 304
314 313 313 312 311 311 310 310 311 310 311 311 311 311 310 309 308 307 307 307 306 306 308 309 308 307 307 307 307 308 308 308 308 308 309 309 310 311 312 314 316 316 317 316 316 316 316 316 317 317 316 315 314 314 315 316 318 319 320 320 320 319 319 318 318 317 317 317 316 315 315 314 313 312 311 310 310 309 309 308 308 308 308 307 305
312 313 313 312 311 310 309 309 308 309 309 309 309 310 309 308 308 308 307 307 306 306 307 308 307 307 307 306 307 307 307 307 307 307 308 308 309 310 310 311 312 313 313 313 314 314 315 315 315 315 315 314 312 310 311 313 315 317 318 319 319 319 318 318 318 318 317 317 315 314 314 313 312 311 310 309 308 307 307 308 308 308 307 305 303
311 311 311 310 309 310 309 308 308 308 308 308 308 309 308 308 307 307 307 307 306 307 307 307 307 307 307 307 307 306 306 307 307 307 307 308 307 307 307 308 309 309 310 311 312 313 314 313 313 313 314 314 312 310 309 310 311 312 313 314 315 317 318 318 318 318 317 315 314 313 312 312 311 310 309 307 306 306 307 308 307 306 305 303 302
310 310 310 309 309 309 309 308 308 308 307 307 307 308 307 307 307 307 307 307 307 307 307 307 308 307 307 307 306 306 306 307 307 307 307 307 305 304 303 303 303 304 305 306 307 309 310 311 312 313 313 313 312 309 308 307 307 308 308 309 311 313 315 317 317 316 316 314 313 312 312 311 310 308 307 305 305 306 307 307 305 304 303 302 301
307 308 309 309 309 308 308 308 308 308 308 307 307 307 307 307 307 307 308 307 307 307 307 307 307 307 307 306 306 306 307 307 307 307 306 305 304 302 301 301 301 300 300 301 302 304 307 309 310 311 311 312 311 309 307 305 305 306 307 308 309 311 314 315 315 315 315 313 312 311 311 309 307 306 305 305 305 305 305 304 304 303 302 301 300
304 305 305 305 306 306 306 306 306 306 307 307 307 307 307 307 307 307 307 307 307 307 307 307 307 307 306 306 306 306 307 307 307 306 305 304 304 304 303 303 302 301 300 299 300 301 304 307 309 310 311 311 311 310 308 306 306 307 308 309 310 312 314 314 314 314 313 312 311 310 309 307 306 306 305 305 305 304 303 303 302 301 301 301 300
302 302 302 303 303 304 304 304 304 304 304 305 305 306 306 306 306 306 306 306 307 307 307 307 306 307 307 306 306 307 306 307 306 306 306 306 305 305 304 303 303 303 302 301 300 300 302 304 307 309 310 311 311 310 309 309 308 309 309 310 311 312 313 313 312 312 311 310 310 309 307 306 306 306 306 305 304 303 302 302 301 301 300 300 299
301 301 301 302 302 302 303 303 303 304 304 304 304 304 304 304 305 305 305 305 306 306 306 306 306 306 306 306 306 306 306 306 306 306 306 306 306 305 304 304 305 304 304 304 302 300 300 301 304 307 309 310 311 311 311 311 311 310 310 311 312 312 312 311 311 311 310 309 308 307 307 307 306 306 305 304 304 303 302 301 300 299 298 297 297
299 300 300 301 301 301 301 301 301 302 302 303 304 304 303 303 304 304 304 304 304 304 304 304 304 305 305 305 305 306 306 306 306 305 305 305 304 305 305 305 305 305 305 305 303 302 300 300 302 306 309 310 311 311 312 312 311 311 310 311 312 312 311 310 310 309 308 308 307 307 306 306 305 304 304 303 303 302 301 299 298 297 296 296 295
300 300 299 300 300 300 301 301 300 300 301 301 302 303 303 303 303 303 303 303 303 303 304 304 304 304 304 304 304 305 305 305 305 305 305 305 305 305 305 306 305 305 305 305 304 302 301 301 303 306 309 310 311 311 312 311 311 311 310 309 311 311 310 309 309 308 307 307 307 306 305 304 303 302 302 301 301 300 298 297 296 295 295 294 294
299 299 299 299 299 299 300 300 300 300 300 300 300 301 301 302 302 302 302 302 302 303 303 303 304 304 305 305 305 305 305 306 306 305 305 305 305 305 305 305 305 305 305 305 304 303 302 303 306 308 310 310 310 311 311 311 311 310 309 308 308 309 309 309 308 307 306 306 305 305 304 303 302 301 300 299 298 297 295 294 294 294 294 293 293
298 299 299 299 299 299 299 299 299 300 300 300 300 300 301 301 301 302 302 302 302 302 302 302 302 303 303 304 305 305 305 305 305 305 305 305 305 305 305 304 304 304 305 304 304 305 304 305 308 309 310 310 310 310 310 311 310 309 308 307 306 306 307 307 307 305 304 303 303 302 301 301 300 299 298 296 295 294 293 293 293 293 294 294 293
298 299 299 299 299 299 299 299 299 299 300 299 300 300 300 301 301 301 301 301 301 302 302 302 303 303 303 304 304 304 305 305 305 305 305 304 304 304 304 304 304 304 305 305 306 306 306 306 307 308 308 309 309 310 309 309 309 307 307 306 305 305 305 305 306 305 304 303 301 300 299 298 297 296 295 293 293 293 293 293 294 294 293 293 293
299 299 299 299 299 299 299 299 299 299 299 299 299 299 300 300 301 301 302 302 301 301 302 302 303 303 303 303 303 304 304 304 304 304 304 303 304 304 304 305 305 305 306 306 306 307 306 306 305 305 307 308 309 309 308 308 307 306 305 305 305 305 305 305 305 304 303 301 300 299 297 296 294 293 293 293 293 293 293 294 293 293 293 293 292
299 299 299 299 299 299 299 299 299 299 299 299 299 299 299 300 300 300 301 301 302 302 302 302 302 302 302 302 303 303 303 303 303 303 304 304 304 304 304 304 304 305 306 307 307 307 307 306 305 305 306 308 308 307 307 306 305 305 304 304 304 304 304 303 303 301 299 298 297 296 295 293 293 293 293 293 293 293 293 293 293 293 292 292 291
298 298 298 299 299 298 299 299 298 299 299 298 298 299 299 299 299 300 300 300 301 301 301 302 302 302 302 302 302 303 302 303 303 304 304 304 304 304 304 303 304 305 307 308 308 307 306 305 305 306 307 307 307 306 305 304 304 303 303 303 303 302 301 300 299 297 296 295 294 293 293 293 292 293 293 293 293 293 293 293 292 292 291 291 290
298 298 298 298 298 298 298 298 298 298 298 298 298 298 299 299 300 300 300 300 300 300 300 301 301 301 302 302 302 302 302 302 302 303 303 303 303 303 304 304 305 307 307 307 306 305 304 305 305 306 306 306 306 305 304 303 302 302 301 301 300 299 298 297 295 294 293 293 293 293 292 292 292 293 293 293 293 293 292 292 292 291 291 290 290
298 298 297 298 298 298 298 298 298 298 298 298 298 298 299 299 299 299 300 300 300 300 300 300 300 300 300 301 301 301 302 302 302 302 302 302 302 302 304 305 306 306 306 305 304 304 304 305 305 305 305 305 304 304 302 301 301 300 300 298 297 296 295 294 293 293 293 293 293 292 292 292 293 293 293 293 293 293 292 292 292 291 291 290 290
297 297 297 298 298 298 298 298 298 298 298 298 298 298 298 299 299 299 300 300 300 300 300 300 300 300 299 300 300 300 300 301 302 302 302 302 302 303 304 305 305 305 304 303 304 304 305 305 304 304 304 304 303 301 300 300 299 299 297 296 295 294 293 293 293 294 294 293 292 292 292 293 293 292 292 292 292 292 292 292 291 291 290 290 290
Wind_Speed
28 31 31 32 31 28 26 27 28 28 26 26 25 24 24 22 19 18 19 20 18 18 17 17 16 14 14 13 12 11 9 8 7 5 5 4 5 6 9 9 7 6 6 6 6 5 5 6 6 7 8 8 8 9 9 8 10 11 12 12 13 12 11 10 9 9 11 14 14 13 13 13 13 14 15 16 16 17 17 15 10 6 6 8 10
29 30 30 30 29 24 25 28 27 26 25 24 23 23 23 20 19 20 20 19 18 17 17 17 15 13 12 13 11 10 9 7 7 7 6 5 4 4 7 8 7 6 5 6 7 6 5 5 5 5 5 5 7 8 8 8 8 9 11 12 12 13 13 11 10 10 10 11 11 11 11 11 12 13 14 15 15 16 17 17 15 10 7 6 6
30 29 30 32 29 25 26 29 28 26 24 22 22 22 22 21 21 22 21 18 17 16 15 15 14 12 11 11 10 10 10 7 6 7 6 6 5 5 6 6 6 6 6 7 7 7 5 4 3 2 3 3 3 5 5 6 7 7 9 11 12 14 13 12 11 11 10 10 10 11 10 9 10 12 14 14 14 15 15 16 16 13 10 8 8
32 30 32 33 30 26 27 31 29 26 24 22 21 21 23 23 23 22 20 18 18 17 15 14 14 13 12 11 10 9 9 7 6 7 7 6 6 6 6 7 7 6 6 7 7 6 5 4 3 2 2 2 3 4 4 4 5 6 8 9 11 12 13 13 12 12 12 11 9 9 9 8 7 9 11 11 11 13 15 16 15 14 12 11 10
36 34 35 34 31 27 27 30 29 26 24 22 20 22 25 25 23 21 20 20 19 17 15 14 15 15 15 14 12 10 9 7 8 9 9 8 7 6 6 7 8 7 7 7 6 4 4 4 4 3 3 3 4 4 4 3 3 4 6 7 8 9 10 11 11 12 12 12 10 8 7 7 8 9 8 8 8 9 11 14 14 13 13 12 11
37 37 38 37 32 28 27 29 28 26 24 21 20 23 26 25 23 21 21 21 19 17 16 14 15 15 14 14 13 11 9 8 9 10 9 10 9 8 7 7 8 7 7 8 7 5 3 4 5 5 4 4 5 4 4 3 2 1 1 2 4 6 7 8 9 11 11 12 13 10 7 6 8 9 7 5 6 6 6 8 10 10 12 13 13
36 37 38 37 34 30 28 29 28 26 24 21 20 24 27 26 23 22 22 22 19 18 17 15 14 13 11 10 9 9 10 11 10 9 10 10 9 9 9 9 9 7 7 7 7 5 5 6 5 5 6 5 5 4 4 3 3 4 4 4 1 3 5 5 6 8 8 9 11 11 8 5 6 6 4 3 2 3 4 4 5 6 8 10 11
35 35 36 36 35 33 31 30 28 26 25 22 22 25 28 26 23 23 23 22 20 18 17 16 13 11 11 10 9 9 11 12 12 10 9 9 9 9 9 10 11 10 9 8 6 5 6 6 5 4 4 5 4 4 4 3 3 3 2 3 3 2 5 4 3 4 6 6 8 11 10 6 5 5 3 2 2 2 3 3 4 5 6 6 6
34 33 34 35 36 35 33 31 29 27 26 24 23 25 28 28 25 24 24 23 21 20 19 16 13 11 11 12 12 12 13 13 11 9 9 9 9 9 8 8 8 9 10 10 7 6 6 6 5 4 4 3 2 2 2 1 1 1 2 3 3 1 3 4 4 5 5 5 6 9 10 8 7 5 4 4 5 4 4 5 4 3 3 4 4
33 30 31 33 36 37 35 33 31 29 27 26 24 24 27 28 27 26 25 24 22 21 21 18 15 13 13 14 15 16 16 14 12 10 10 10 10 10 10 9 9 8 9 11 11 8 7 7 5 4 3 3 3 3 3 3 4 4 4 3 0 2 3 4 6 6 6 5 6 7 9 9 8 6 6 5 5 5 6 6 5 3 2 1 2
32 29 30 32 34 36 35 34 32 31 29 28 27 26 27 28 28 27 26 25 24 23 22 20 17 15 15 17 18 18 18 15 13 12 12 11 11 11 11 10 10 10 9 10 13 12 9 7 5 3 3 3 3 3 2 1 2 2 2 1 2 4 4 4 4 5 5 5 6 6 7 8 7 6 6 5 5 5 6 6 5 3 3 4 3
31 31 31 32 33 34 36 35 33 33 32 31 30 29 28 29 29 28 27 27 26 25 24 21 19 17 17 18 19 19 17 15 13 13 13 13 13 12 12 11 10 10 10 10 12 12 9 6 6 6 8 9 9 9 9 9 9 8 7 5 4 4 4 2 1 2 3 4 4 5 6 6 6 5 4 5 5 4 5 5 5 4 3 3 5
29 30 31 31 32 33 35 35 35 35 34 33 32 31 31 30 30 29 28 28 27 26 25 22 19 18 18 18 17 16 16 14 13 13 14 15 14 13 13 12 11 10 10 10 10 10 9 9 10 10 10 10 10 10 11 10 10 10 9 8 7 6 6 4 2 2 1 2 3 4 4 5 5 5 5 6 6 7 7 7 7 8 7 4 2
25 26 27 28 30 32 34 34 35 35 36 35 34 33 32 32 33 32 32 32 28 24 23 21 19 19 19 17 14 14 15 15 13 12 15 15 14 14 14 13 13 12 11 11 10 10 10 10 9 9 9 9 10 9 9 9 9 8 8 8 7 7 7 6 5 5 3 2 2 2 2 3 2 3 3 4 4 5 5 5 5 6 7 5 4
21 20 20 21 24 28 31 32 33 34 35 35 35 34 33 33 33 27 26 30 27 22 22 21 20 22 20 17 15 15 15 15 14 13 14 16 16 16 15 15 14 14 13 12 11 10 10 9 8 7 7 8 9 8 8 8 7 7 7 7 7 7 6 5 5 5 4 4 3 3 4 3 2 1 1 1 1 2 2 2 2 2 2 3 5
19 18 17 17 17 20 23 26 28 30 32 33 34 34 34 35 31 21 18 22 23 24 25 23 23 23 21 18 17 16 17 17 17 15 14 15 16 16 16 15 14 14 14 13 13 12 10 10 8 7 6 7 8 8 7 7 7 7 7 7 7 7 6 5 5 5 5 4 4 4 4 4 3 2 2 1 0 1 1 2 2 2 1 4 5
19 17 16 14 14 14 15 16 19 23 27 30 31 31 31 31 29 26 24 25 28 30 28 26 25 24 21 20 19 18 19 17 17 17 15 14 14 15 14 14 14 14 14 13 13 12 11 11 9 8 7 7 7 7 7 6 7 7 7 7 7 7 7 7 6 6 6 6 5 5 4 4 4 3 3 2 2 2 2 2 2 2 1 2 4
18 16 15 13 11 10 11 12 13 14 17 22 25 26 26 25 24 25 26 27 30 31 29 28 27 25 24 23 21 21 20 17 17 16 15 13 13 13 12 12 12 12 13 13 12 11 11 10 9 8 8 7 6 6 6 6 6 6 6 7 7 7 7 6 6 6 7 6 6 5 5 5 5 4 3 3 2 1 1 1 1 2 2 1 1
15 13 12 12 11 9 9 10 12 12 10 11 15 17 19 20 21 22 22 25 27 28 29 28 27 26 27 26 25 23 20 17 17 16 15 14 12 11 11 10 9 9 10 10 10 10 9 9 8 7 6 6 5 4 4 5 5 5 5 5 6 6 6 5 4 5 6 5 5 5 5 5 5 4 4 3 3 2 2 2 2 2 3 3 3
13 12 10 9 10 10 10 10 11 12 11 11 12 13 14 16 18 19 19 23 27 28 28 27 25 27 29 28 28 25 20 18 18 17 16 14 12 11 11 10 9 8 7 7 7 6 6 6 7 6 5 4 3 3 2 2 3 2 2 2 3 3 3 3 2 2 3 3 2 2 3 4 4 4 5 4 4 3 4 4 4 4 4 5 5
13 12 10 9 9 9 10 10 10 11 11 11 11 11 12 12 13 14 15 22 28 29 28 27 28 30 29 29 30 26 21 21 21 19 17 15 14 13 12 11 9 8 6 5 5 4 4 4 5 6 6 5 4 3 2 1 1 1 1 1 1 1 1 1 2 2 1 1 1 0 1 2 3 4 4 4 4 4 4 4 5 6 6 7 7
12 11 10 9 9 8 9 10 10 10 10 9 9 9 9 9 10 10 12 18 25 27 26 26 28 29 28 29 29 26 23 22 22 22 21 19 19 17 15 13 11 10 8 6 5 4 4 4 4 4 4 4 5 4 4 3 3 4 4 4 4 3 3 3 2 3 3 2 2 2 2 1 2 2 3 4 5 5 5 5 5 6 7 8 9
11 10 10 9 9 8 9 9 9 9 8 8 8 8 7 7 8 10 9 12 20 23 23 24 26 27 29 29 28 26 24 22 23 24 23 23 23 20 18 16 14 12 11 10 9 8 7 7 6 6 6 5 5 4 4 4 4 4 5 5 6 6 6 5 5 4 4 4 4 4 3 2 2 3 3 4 4 4 4 5 5 6 7 8 9
11 10 9 9 8 8 9 8 8 8 6 6 7 6 6 6 7 9 9 12 16 17 18 21 23 27 30 30 28 27 26 24 25 25 23 24 25 22 20 19 16 15 14 13 13 12 11 10 9 9 9 8 8 8 7 7 6 5 5 5 5 6 6 6 5 6 6 6 5 5 5 4 3 4 4 5 4 4 4 5 5 6 7 8 8
10 10 9 9 8 8 9 8 8 8 7 6 5 5 6 6 7 7 8 13 16 14 17 21 23 27 31 30 26 26 27 27 25 23 22 26 27 24 21 19 16 15 15 15 15 14 13 12 12 12 11 11 10 11 11 11 10 9 8 8 7 7 7 6 6 6 7 7 7 6 6 5 4 4 5 5 6 6 6 6 7 7 7 8 8
11 11 11 10 8 7 8 8 7 7 8 8 8 8 9 8 8 7 8 12 14 15 20 25 27 28 29 26 24 26 27 27 25 22 22 24 25 23 20 19 17 17 17 17 16 15 14 14 13 14 14 13 13 13 14 14 13 13 12 12 12 11 11 10 9 9 9 9 8 8 7 7 6 5 5 6 7 8 8 9 9 9 9 9 9
12 12 11 11 10 9 8 7 7 8 8 8 8 9 11 12 12 12 12 14 16 19 23 26 26 25 23 20 20 24 25 24 23 21 20 20 20 19 18 19 19 19 19 19 19 18 16 15 15 15 15 15 15 15 15 16 17 16 16 16 16 15 14 14 13 12 11 11 11 10 10 9 8 7 7 7 8 9 10 11 11 11 11 11 11
13 13 12 12 12 11 9 9 8 8 8 8 8 9 10 11 13 14 15 16 17 19 21 22 22 21 18 16 16 19 20 21 21 20 20 20 19 18 19 20 21 21 21 21 21 19 16 16 16 18 19 19 19 18 18 18 19 19 19 19 19 19 18 17 16 16 15 14 14 13 12 10 9 8 8 9 11 12 12 12 12 12 12 12 12
15 15 15 14 13 12 11 10 8 7 7 7 7 7 8 9 11 13 13 14 15 16 17 18 18 18 17 16 15 16 17 18 19 19 18 17 15 15 16 17 18 19 19 17 16 14 13 14 16 18 19 20 21 21 21 21 22 21 21 21 20 20 20 19 18 18 18 18 17 17 16 14 11 10 10 10 12 13 13 13 13 13 13 13 13
17 17 16 15 14 14 13 12 10 8 6 5 5 5 5 7 9 10 11 11 12 13 14 14 15 15 14 13 12 12 12 12 14 14 13 12 12 13 12 11 11 11 11 11 11 11 12 12 13 14 15 17 18 20 21 21 22 23 24 23 22 22 22 22 21 20 21 21 21 20 20 17 14 13 13 12 12 14 14 14 14 14 14 14 15
13 16 17 15 15 16 15 14 12 9 7 5 4 4 5 6 8 8 9 10 10 10 11 11 11 11 10 10 10 9 9 8 9 9 8 8 8 8 7 7 7 7 7 8 9 9 9 9 9 10 11 13 15 16 17 18 18 20 22 24 24 24 24 24 24 24 23 23 24 24 23 21 18 15 15 14 13 13 14 14 15 15 16 16 16
9 12 15 14 15 16 15 15 14 12 10 8 7 6 5 5 6 6 7 8 8 8 9 10 9 9 9 10 10 9 9 8 8 7 7 7 7 7 7 7 8 8 8 8 8 8 8 8 9 9 9 9 11 12 13 14 14 15 17 19 21 22 23 24 26 27 26 26 26 26 26 24 21 17 16 15 14 13 14 16 16 17 18 18 18
9 11 12 12 13 14 13 13 13 13 12 10 9 9 7 5 6 7 6 6 5 6 8 9 8 8 9 9 9 9 9 9 8 8 8 8 8 8 8 8 9 9 9 10 10 9 9 9 9 10 9 9 10 11 12 13 13 14 15 17 18 19 20 21 23 26 27 27 27 28 27 24 20 18 17 16 14 13 14 17 19 20 21 20 21
5 8 10 11 12 13 9 9 10 10 11 12 13 13 10 8 8 8 7 6 6 7 8 7 7 9 9 8 8 9 9 9 9 9 9 9 9 9 9 9 10 10 10 11 11 11 11 11 11 11 11 11 12 12 13 13 14 14 14 15 16 17 18 19 21 23 25 26 27 28 26 22 19 18 17 16 13 12 15 18 20 21 21 21 21
9 8 9 10 10 8 5 4 5 4 5 10 13 14 12 10 8 8 7 5 5 7 6 6 7 8 8 8 9 10 10 10 9 10 11 11 11 12 13 13 14 14 13 13 13 13 12 12 12 11 11 12 14 14 14 14 15 15 15 16 15 16 17 18 19 21 23 25 27 26 23 20 19 18 16 14 13 15 18 21 21 21 21 21 21
9 8 8 8 6 6 5 4 2 3 0 6 9 10 10 10 8 8 7 6 6 7 6 6 7 8 8 8 9 10 11 11 11 12 12 12 12 11 11 12 12 13 13 14 14 14 14 13 12 12 12 13 15 16 16 15 15 16 17 16 15 15 14 14 15 17 21 25 26 25 22 20 18 16 15 14 16 19 21 22 22 21 21 22 22
10 7 6 6 4 3 1 2 5 7 7 3 3 4 6 7 7 8 8 8 8 8 7 6 6 7 7 8 8 9 11 12 11 11 11 10 9 8 8 7 7 8 9 10 12 13 13 13 12 13 14 15 17 17 17 16 15 15 15 15 14 12 11 11 12 16 20 23 23 22 20 18 16 15 16 17 20 21 21 21 21 21 22 22 22
12 9 8 5 3 3 4 7 8 9 11 11 8 7 7 6 7 8 10 10 10 9 8 7 7 7 8 9 10 10 11 11 11 11 11 10 8 8 8 9 9 8 8 8 10 12 13 14 13 14 15 16 16 17 17 16 15 15 14 13 11 10 10 12 14 17 20 21 20 18 17 17 17 18 19 20 21 21 20 20 20 21 22 23 24
12 11 10 9 8 6 4 6 7 8 9 9 9 10 12 12 11 10 10 11 12 12 10 9 8 8 8 9 9 10 11 12 13 13 12 11 11 12 13 13 12 11 10 10 10 11 13 15 15 15 16 16 17 17 17 17 16 16 15 12 10 9 10 14 17 18 20 20 19 18 18 19 19 20 21 21 20 20 20 20 21 21 23 24 26
11 10 9 9 8 7 5 6 8 10 10 9 8 9 10 11 11 11 12 13 14 15 15 14 12 10 9 9 10 11 12 13 13 13 13 13 14 15 16 15 14 14 15 15 14 13 13 15 16 17 17 17 18 18 18 17 16 16 15 11 9 10 11 14 17 18 20 20 20 20 20 20 20 20 20 20 20 21 21 21 22 23 25 27 29
11 11 10 10 10 9 8 8 9 10 11 12 13 13 12 12 11 11 12 13 15 17 17 18 17 16 14 14 13 13 14 14 15 15 16 16 16 16 16 16 16 17 18 19 19 18 15 16 17 17 17 17 17 17 17 16 15 15 13 11 10 11 12 14 16 18 20 20 19 19 19 19 19 19 20 21 22 22 23 24 26 27 29 30 31
13 13 13 14 13 13 13 12 11 11 11 12 14 16 15 14 14 13 13 14 15 16 16 16 17 17 17 16 16 16 16 17 17 17 17 17 16 16 16 17 19 20 20 21 22 21 18 16 16 16 15 16 16 15 15 14 13 12 11 10 11 13 14 16 17 17 18 17 17 17 18 19 19 20 21 22 23 24 25 27 28 28 28 29 29
20 19 19 19 19 18 18 17 15 14 13 13 15 17 16 16 16 15 15 15 15 15 15 15 15 15 16 16 16 17 17 17 17 17 18 18 17 16 16 17 20 21 22 23 24 21 18 16 15 14 14 15 15 14 13 12 11 11 10 9 10 13 15 17 17 16 16 16 17 18 19 20 20 21 22 23 25 25 26 26 26 25 26 26 26
25 24 23 23 24 24 23 22 20 18 15 13 14 16 18 19 20 18 16 15 16 16 16 17 17 18 19 19 20 20 19 19 18 18 19 19 19 19 19 20 22 23 23 24 24 20 17 16 15 13 13 13 14 13 12 12 11 10 10 10 11 13 15 16 16 16 16 17 18 19 19 20 21 22 23 24 24 24 23 23 23 23 23 23 23
25 25 23 23 25 26 27 27 26 23 20 16 14 14 15 16 17 18 18 18 18 17 17 17 17 16 17 18 20 21 21 20 20 20 21 21 21 21 21 21 22 24 24 24 23 20 16 15 14 12 12 13 14 14 13 12 12 12 12 13 13 13 13 14 15 17 19 19 19 19 19 20 21 21 22 21 21 20 20 20 20 21 21 21 22
24 23 22 22 23 26 28 29 29 28 26 23 19 17 16 13 12 13 14 16 18 19 19 19 18 17 16 15 17 19 20 21 22 22 22 21 20 20 20 20 21 23 24 23 22 20 17 14 13 13 13 14 15 14 14 13 13 14 15 15 14 14 14 14 16 17 19 18 18 18 19 19 19 19 18 18 18 17 17 18 18 20 21 22 23
23 23 22 22 24 26 27 29 30 31 30 27 25 23 22 20 18 16 15 15 17 18 20 20 20 20 19 17 16 17 18 19 20 20 21 21 21 21 22 22 22 23 24 24 22 20 17 15 14 14 14 14 14 14 14 14 15 16 16 15 15 15 15 16 15 16 16 16 17 17 17 16 16 16 16 16 16 17 18 19 20 21 22 22 23
23 23 23 23 24 25 26 27 29 30 30 30 29 27 26 24 24 22 21 20 19 20 21 22 22 21 21 20 18 16 16 17 18 20 21 22 22 22 22 22 22 22 23 22 19 16 15 15 14 13 13 14 14 14 14 16 16 16 15 15 14 14 14 14 14 14 14 14 14 14 14 14 14 14 14 15 16 18 19 20 20 20 20 20 19
24 25 25 25 26 26 27 28 29 29 30 30 31 30 28 27 26 25 23 23 24 23 23 24 25 24 24 22 21 18 16 17 19 21 22 23 23 22 21 20 20 20 20 18 15 15 15 14 12 12 13 13 13 14 15 16 16 15 14 13 12 12 12 12 12 12 11 11 11 11 11 12 12 12 13 14 16 16 17 17 17 17 17 17 18
26 27 29 29 29 29 29 29 29 29 29 30 31 31 29 28 27 27 26 26 26 25 25 26 27 27 27 25 24 22 20 19 20 21 22 22 22 21 22 21 21 20 17 16 16 15 14 13 12 12 13 12 10 12 15 17 15 13 12 12 11 11 11 10 9 8 8 9 9 10 11 11 11 11 13 14 15 16 16 16 17 18 18 19 20
27 28 29 30 30 30 30 31 31 30 29 30 31 31 29 27 26 26 26 26 26 25 25 25 25 27 27 26 25 24 23 22 20 20 21 21 21 21 23 24 22 19 16 16 16 14 13 14 13 11 11 10 8 10 15 16 13 12 11 10 10 9 7 5 5 6 7 8 8 9 9 9 10 12 14 16 16 17 18 18 19 20 20 21 22
Wind_Direction
177 177 179 181 182 180 173 168 168 168 169 177 183 185 188 189 193 197 196 198 198 192 189 191 194 190 184 180 181 192 208 227 236 239 245 246 248 230 209 204 195 179 166 164 161 157 170 186 198 208 215 219 226 235 235 228 225 227 233 236 232 231 232 230 228 229 226 223 230 240 243 243 241 238 234 231 233 233 231 230 227 213 210 223 224
177 177 180 181 180 174 173 174 172 174 179 189 196 197 198 197 196 192 188 188 186 181 179 182 186 184 179 177 174 175 183 205 228 235 243 250 251 236 215 208 202 200 196 188 178 167 168 170 174 186 194 208 222 230 235 235 233 234 238 241 236 233 236 238 233 231 231 233 242 248 249 249 244 237 231 228 231 232 231 234 233 225 217 225 233
176 175 175 176 176 174 177 178 178 185 191 197 204 205 202 197 191 187 182 178 174 170 168 167 168 172 174 172 169 164 166 183 210 221 230 241 240 239 237 227 215 216 217 215 204 191 185 173 154 150 159 173 194 210 223 233 238 239 241 244 241 239 242 244 241 237 237 241 249 253 255 257 245 234 228 226 228 229 228 231 233 232 231 231 232
175 173 170 173 178 178 179 181 184 192 197 201 204 202 197 191 186 184 181 174 168 163 162 161 158 164 172 172 172 166 164 179 194 198 209 219 221 228 238 240 234 225 218 222 218 203 199 194 171 135 145 159 171 193 212 223 236 242 242 241 240 242 244 244 243 243 242 239 241 248 250 251 246 238 236 235 236 236 234 233 235 238 240 241 241
174 172 172 177 183 182 181 185 190 197 201 204 203 197 191 187 184 183 179 173 170 165 164 167 166 171 178 178 181 178 169 174 176 176 183 190 194 197 203 216 225 224 222 230 231 216 196 187 185 174 151 157 171 180 196 204 215 231 237 237 235 239 243 243 242 243 240 234 233 234 238 245 247 245 247 249 247 243 236 232 235 241 244 244 248
174 175 175 179 183 183 184 190 195 199 203 207 205 195 189 186 184 183 181 179 179 175 173 179 181 182 185 183 184 186 176 169 167 161 158 165 172 176 175 185 201 214 224 231 229 210 164 142 159 166 150 151 163 167 179 189 180 177 195 214 228 233 236 239 242 240 235 231 230 229 235 251 246 241 244 250 252 247 232 224 229 239 244 245 251
178 178 177 179 183 185 188 192 197 200 203 208 205 196 192 190 187 185 186 188 187 183 183 191 193 193 196 193 192 192 178 163 160 154 148 151 156 164 171 178 190 202 212 219 216 189 148 138 143 146 144 147 148 149 152 145 116 101 84 70 65 211 211 224 235 234 230 228 225 222 226 239 231 220 220 234 258 255 229 221 231 234 240 246 259
181 180 179 181 185 189 192 194 197 200 202 206 205 199 196 195 192 191 191 194 194 191 191 195 199 201 202 202 204 204 186 166 158 154 147 145 143 148 160 175 192 205 210 209 204 175 148 146 142 135 140 144 145 154 153 130 113 109 65 29 30 156 184 193 204 205 208 214 214 210 208 208 210 202 187 196 224 230 208 211 231 233 237 245 257
184 183 184 186 189 192 196 197 197 200 203 207 207 203 201 199 197 196 195 198 199 196 196 197 199 203 207 210 209 201 185 168 159 154 147 145 139 133 134 143 164 190 203 200 187 168 157 156 151 141 137 136 148 182 183 174 218 270 312 338 14 92 160 162 167 173 178 187 192 197 199 199 207 206 197 213 218 206 191 193 207 216 230 238 226
187 189 190 192 193 195 199 199 198 202 206 210 211 209 207 205 203 201 200 201 202 200 199 196 195 199 209 216 211 195 180 169 162 156 151 145 135 127 125 124 127 144 177 192 187 173 165 168 171 173 180 192 214 241 255 276 291 299 309 312 17 111 123 131 146 154 160 170 171 178 191 195 199 200 202 217 219 207 197 192 186 152 112 172 197
190 193 195 196 197 198 200 201 201 203 206 211 214 215 214 211 209 207 205 204 203 202 200 195 192 194 206 216 210 192 179 172 165 157 154 146 136 130 129 127 126 125 140 172 186 187 185 186 190 193 171 145 141 145 137 92 51 41 19 6 144 142 136 132 140 147 152 159 159 167 183 190 196 201 203 208 206 199 199 198 191 164 105 81 71
189 192 196 197 198 199 200 202 204 203 205 210 214 217 218 216 214 211 209 207 205 204 201 195 189 190 200 210 206 192 182 177 166 157 153 147 143 140 134 130 129 127 129 145 169 184 188 171 148 133 119 111 109 108 102 98 96 91 89 94 106 117 120 119 145 175 178 176 168 170 181 190 202 214 220 225 229 227 226 227 223 213 180 104 69
184 189 195 198 200 201 202 204 205 206 208 210 214 218 220 219 216 213 210 207 204 205 205 197 189 191 196 199 198 194 192 184 169 158 153 149 146 141 133 129 128 130 132 133 141 152 149 135 126 123 119 112 109 108 103 99 99 99 102 106 110 112 113 113 116 129 172 203 191 184 193 208 225 243 256 266 276 276 267 264 258 251 246 234 137
179 186 194 200 203 204 206 207 208 209 209 211 214 218 220 221 217 213 209 203 198 203 208 199 187 188 189 188 191 201 207 198 181 164 156 153 147 137 130 125 123 124 129 133 134 135 133 130 126 123 121 115 109 109 106 101 99 100 103 108 113 115 115 119 118 114 117 124 125 133 166 189 210 248 267 279 292 290 283 284 272 263 265 246 193
161 172 182 194 203 207 210 212 213 212 212 213 215 216 218 217 211 202 194 192 191 197 206 200 187 185 186 185 189 204 217 211 193 176 162 156 149 142 138 132 126 123 123 126 130 134 133 131 129 123 117 113 114 116 112 106 100 96 96 102 106 104 105 109 101 99 104 104 95 96 119 132 129 134 164 265 286 299 293 298 309 294 266 193 167
142 153 163 176 190 202 211 215 217 218 218 219 218 217 218 218 217 212 200 199 204 206 207 203 191 185 188 191 193 204 217 215 203 191 175 164 156 149 146 141 135 128 125 123 124 126 127 126 125 121 109 102 106 108 106 101 95 92 91 93 96 97 100 97 88 88 88 83 77 78 98 106 94 90 84 81 66 7 0 344 356 9 85 143 142
134 144 149 161 176 189 200 208 213 218 222 223 224 225 225 228 234 235 226 223 226 221 216 209 195 187 192 200 202 206 213 214 209 201 187 174 166 159 154 152 147 138 131 128 125 123 123 121 117 112 104 94 88 90 94 93 89 88 87 85 89 93 93 90 84 84 84 84 81 76 81 81 70 60 43 51 72 50 25 8 2 4 30 118 129
128 133 133 139 154 170 183 189 193 204 218 224 228 229 229 233 238 237 232 233 232 224 218 210 196 190 196 204 210 211 210 213 215 211 198 185 178 174 171 165 158 151 142 137 132 128 125 123 120 114 106 96 85 80 83 85 83 83 84 86 89 87 83 82 76 75 79 80 78 75 75 74 72 59 30 19 36 54 45 5 347 340 343 345 53
120 122 124 129 133 140 157 169 172 173 183 203 215 221 226 232 236 236 240 243 234 220 212 203 192 193 201 207 214 212 205 208 217 218 206 194 190 189 189 185 178 168 156 147 142 137 132 127 123 117 108 100 92 78 68 70 76 74 70 73 84 85 80 80 75 70 73 73 69 66 65 68 69 63 50 33 11 357 353 2 2 347 346 347 355
126 126 127 130 132 132 138 147 157 163 168 178 188 198 210 223 229 232 238 239 231 219 212 205 196 199 204 207 213 211 204 205 212 216 210 200 199 200 201 207 205 198 182 165 157 149 145 143 140 140 136 124 115 98 63 45 54 52 47 56 82 99 97 97 102 87 74 77 71 51 43 44 42 38 40 36 19 358 350 358 1 357 357 3 10
136 137 137 136 134 132 136 143 153 161 170 180 185 187 197 211 219 223 227 228 226 221 218 214 206 204 205 207 211 210 204 203 207 212 210 202 203 206 208 214 215 218 219 204 186 170 166 174 175 174 172 172 176 173 180 222 286 301 301 306 290 184 170 183 173 168 157 160 192 178 27 8 2 4 9 8 1 354 353 357 355 348 345 347 351
143 144 146 149 144 137 137 140 150 161 170 180 186 184 189 203 206 205 213 222 223 217 213 212 206 201 205 210 212 212 207 206 209 212 210 206 205 204 206 211 213 216 220 221 221 212 203 205 210 216 212 204 204 200 203 220 235 248 249 252 256 251 251 256 234 211 227 257 265 239 211 236 304 309 331 344 341 340 341 342 341 333 330 331 331
150 153 156 155 151 150 148 146 149 161 174 185 195 199 193 196 197 196 202 211 214 210 203 205 205 201 206 212 212 209 207 208 212 213 211 208 206 203 205 210 211 210 212 217 226 231 231 228 229 238 246 250 245 236 236 243 247 247 243 243 249 255 257 259 257 248 247 264 283 283 265 262 299 297 312 331 330 327 323 321 321 317 315 316 316
146 155 163 164 164 164 158 154 151 153 165 181 194 199 188 181 184 187 185 183 194 203 200 202 205 206 212 216 213 207 204 207 212 214 210 207 206 207 209 212 214 214 217 221 226 233 240 246 251 250 250 256 260 263 265 262 261 257 249 246 250 260 263 262 265 268 265 263 268 275 280 290 314 318 324 335 334 324 309 299 296 297 301 305 305
140 142 143 151 168 177 170 164 153 145 146 152 160 165 163 163 168 175 173 167 175 193 198 198 204 210 215 217 212 206 203 205 207 206 206 207 208 208 208 213 220 225 230 233 234 240 247 257 264 262 257 259 264 269 272 271 272 267 258 255 257 261 269 272 276 282 282 277 271 267 266 272 291 308 319 331 333 325 315 304 298 297 299 302 302
142 135 127 124 128 144 160 166 160 152 146 141 136 135 139 144 152 164 169 166 172 185 190 194 203 210 213 212 208 206 207 211 212 210 213 214 210 207 208 214 224 232 235 237 240 247 254 259 262 259 257 258 261 267 270 272 273 270 265 263 260 259 264 267 270 278 285 288 288 286 279 276 284 298 307 315 318 317 315 312 308 305 304 303 301
153 145 137 128 121 121 126 132 137 141 145 147 143 137 139 144 152 164 171 173 178 183 187 194 201 207 212 211 206 208 212 219 221 219 224 227 222 218 218 219 222 226 229 233 241 249 255 258 258 255 254 253 253 259 265 270 271 270 269 267 264 263 264 265 265 267 270 276 283 287 288 288 292 297 301 304 308 312 314 311 307 306 307 307 306
172 169 163 153 141 135 129 124 122 124 130 137 141 142 145 150 154 161 170 176 182 186 191 199 204 210 216 212 206 211 218 224 225 226 234 240 238 236 234 233 234 234 236 240 246 251 256 258 257 256 259 259 256 254 256 262 267 268 268 267 266 266 267 267 265 262 261 262 267 274 279 282 286 287 288 298 307 309 308 306 305 307 308 309 308
165 169 174 173 165 156 149 144 138 134 132 123 117 123 134 147 154 159 167 176 184 189 196 203 209 215 219 218 221 227 230 231 232 235 241 245 244 241 241 242 242 243 245 248 251 255 258 258 257 258 262 264 262 260 258 261 265 268 267 266 265 266 267 266 262 259 260 261 264 271 277 277 278 276 275 285 300 304 301 299 302 306 308 307 306
155 155 158 164 168 167 164 162 159 157 150 126 108 109 117 131 142 149 157 164 172 183 192 199 205 211 214 216 222 225 225 226 226 230 235 238 239 240 240 240 239 241 245 248 252 255 255 258 260 260 261 262 262 262 262 263 263 264 265 266 266 266 267 266 261 255 255 259 264 269 272 271 267 266 267 274 288 297 298 296 300 307 310 308 305
162 161 158 155 158 162 162 161 160 165 170 158 138 129 126 127 132 141 149 149 154 166 174 183 191 195 198 199 200 199 201 205 207 211 215 214 214 217 220 221 223 224 229 235 242 247 250 255 259 262 265 264 262 261 261 260 258 258 261 263 264 265 266 267 265 258 254 256 260 262 264 262 259 258 260 265 277 290 295 294 299 308 312 309 304
184 174 166 156 151 154 158 161 165 168 172 171 162 148 142 141 143 151 154 150 155 167 173 178 182 183 188 188 186 184 183 183 185 187 185 183 184 189 194 203 210 213 218 228 237 246 253 255 257 264 270 271 268 265 262 261 258 258 261 262 264 265 266 268 266 261 257 256 255 255 256 255 254 253 254 258 270 285 292 295 301 308 310 308 302
204 191 182 170 156 147 143 149 161 168 169 170 171 167 162 160 161 165 164 157 164 183 189 190 186 182 186 186 183 182 182 186 190 191 193 196 199 204 207 212 217 222 229 238 246 254 259 262 264 270 278 283 280 271 266 266 265 264 265 267 267 267 267 267 264 261 259 256 251 250 250 248 248 249 252 259 269 281 291 297 302 305 304 301 296
154 175 175 166 158 155 142 122 127 146 159 162 166 167 164 163 167 172 176 176 173 174 182 193 192 188 190 193 193 194 197 202 203 202 205 207 208 215 223 227 231 235 239 245 251 255 259 266 272 276 282 288 286 279 274 272 270 270 269 270 270 269 267 266 263 261 258 253 248 247 245 244 244 248 256 264 270 279 290 296 297 296 294 292 290
90 112 125 117 118 136 145 115 101 111 138 152 162 167 168 173 183 187 192 198 185 174 183 201 202 199 202 206 206 205 207 212 215 217 220 222 226 231 235 238 241 244 246 249 252 256 260 266 273 277 280 282 282 281 281 280 278 277 275 274 274 272 268 265 263 260 252 243 240 239 239 241 247 254 264 269 273 283 292 293 291 289 287 288 290
81 102 128 132 123 111 96 69 18 340 352 144 155 173 184 189 197 198 195 198 197 196 202 206 208 218 229 231 225 219 218 222 225 227 231 236 237 233 229 230 233 237 241 245 250 255 258 261 266 271 272 274 276 280 283 285 284 281 279 277 275 273 271 269 266 258 248 239 234 235 239 246 253 261 264 266 274 284 288 287 287 288 289 290 293
69 88 117 149 183 206 233 292 296 294 289 272 159 182 194 189 193 194 191 194 200 205 207 206 215 231 240 246 246 236 230 232 236 241 248 251 246 236 232 234 236 235 238 242 244 248 252 255 260 266 268 270 274 279 285 288 288 285 282 279 277 278 280 278 266 251 241 235 232 235 242 248 253 255 257 264 274 279 280 281 284 287 289 291 292
45 46 40 43 22 334 293 279 292 302 300 300 294 269 246 227 215 208 203 205 209 209 208 211 224 237 245 252 252 241 234 238 249 260 269 273 273 273 275 276 271 263 258 254 249 245 246 250 256 262 267 270 272 277 284 290 292 292 289 286 284 286 283 270 255 240 230 229 234 239 243 244 247 252 258 265 271 273 276 281 285 286 286 285 284
19 14 11 13 3 348 317 293 305 313 310 308 296 273 258 250 246 242 237 232 227 224 223 225 232 240 243 244 242 235 235 243 254 262 269 276 283 286 286 285 281 276 277 279 275 262 252 249 252 256 263 269 272 275 280 286 291 294 294 291 285 278 266 251 242 234 231 235 240 241 240 243 251 259 264 268 272 275 278 281 282 281 280 279 279
6 355 349 348 342 334 316 305 306 303 299 297 291 282 275 266 258 252 252 251 244 239 236 237 240 243 241 242 243 243 243 246 250 256 262 270 277 279 280 282 284 287 290 293 295 288 270 256 252 254 259 266 270 272 275 277 281 286 289 284 273 265 258 249 245 243 243 243 243 242 244 251 258 262 267 271 274 275 276 278 279 280 280 280 281
344 339 331 320 312 313 312 311 311 305 297 290 281 277 278 277 270 258 254 257 258 256 253 250 250 250 252 257 260 260 258 258 258 260 265 269 272 274 278 283 287 290 293 295 299 299 286 266 258 257 262 267 267 265 265 266 269 275 277 271 263 260 257 253 249 245 242 242 245 252 256 260 261 261 263 266 268 271 275 278 279 279 279 281 284
310 311 315 311 303 299 296 293 294 294 294 292 286 278 273 272 272 268 265 268 267 262 257 254 252 254 257 261 263 263 263 263 262 263 266 268 270 273 276 280 283 285 288 292 296 297 289 274 267 267 269 271 266 260 258 258 259 262 261 256 253 253 252 252 249 245 245 249 255 263 265 263 259 258 260 264 269 274 276 277 277 278 280 284 287
304 298 300 303 302 298 293 289 288 288 288 290 287 280 276 274 273 269 268 270 265 256 252 252 252 254 255 255 256 257 257 256 257 260 262 264 266 269 272 275 279 281 285 287 289 292 289 280 276 278 278 273 267 261 257 253 249 247 247 248 252 254 254 254 252 251 254 257 259 261 262 260 260 262 267 272 275 276 276 277 279 282 285 287 288
300 296 295 296 295 293 290 287 285 284 286 294 294 285 278 277 275 272 268 265 258 249 247 251 255 257 255 252 252 255 256 256 255 255 257 260 264 268 272 275 277 278 279 280 283 287 288 284 283 285 282 275 268 262 255 247 243 242 244 248 256 261 260 258 257 256 255 255 256 258 261 264 268 271 273 275 276 278 280 283 285 287 288 290 292
294 294 294 292 290 289 288 285 283 281 281 286 294 293 285 278 272 266 263 262 258 249 242 241 244 248 251 252 252 253 253 254 253 254 259 264 267 268 269 271 272 273 273 274 277 281 283 283 284 285 283 275 265 256 247 243 245 250 250 247 251 259 263 263 263 262 259 257 259 263 268 271 272 273 274 277 280 283 285 286 288 290 292 294 295
293 294 295 294 291 288 286 285 283 281 280 280 282 284 284 279 268 256 250 251 252 250 246 242 240 239 240 244 248 250 251 254 256 259 264 265 264 263 265 267 268 267 266 268 271 272 273 276 280 285 283 271 257 246 238 237 242 247 247 244 248 256 258 257 258 260 261 263 266 268 270 271 272 275 278 280 281 281 281 284 287 290 293 294 294
294 293 293 293 291 289 288 286 283 281 280 279 277 275 275 276 274 267 259 250 246 245 244 244 243 241 239 239 240 245 251 254 254 256 259 261 261 262 265 267 267 264 260 259 259 258 261 272 281 283 277 263 251 243 238 239 242 244 243 243 248 253 253 252 255 259 261 263 265 266 269 273 277 280 282 282 282 283 285 287 288 290 292 293 294
290 289 288 286 286 286 286 286 284 282 282 280 278 274 271 272 273 273 270 265 258 253 248 246 245 243 242 241 240 242 248 252 252 253 256 258 261 263 266 268 267 260 252 245 243 251 266 276 278 274 265 256 251 246 242 241 243 243 243 245 248 251 252 253 255 257 258 260 264 270 276 280 282 284 286 288 291 291 291 290 290 291 292 293 294
285 286 286 285 285 284 283 283 283 283 283 283 281 276 271 269 269 269 268 267 264 262 258 255 253 251 250 249 245 243 246 251 254 257 262 264 265 266 266 263 255 247 241 239 248 267 276 273 265 262 259 256 255 250 242 238 239 241 243 245 247 248 249 250 252 255 260 266 273 278 280 282 284 288 293 297 300 299 296 292 291 292 294 297 298
282 283 282 282 281 281 280 280 279 280 281 282 281 278 274 270 267 266 265 264 263 261 260 258 257 257 256 253 250 247 247 249 253 257 263 267 268 265 258 249 242 240 246 258 270 275 271 261 258 259 259 259 259 251 238 231 231 235 237 238 241 242 243 247 253 263 274 280 283 283 282 284 289 298 306 312 311 308 302 297 296 297 299 299 299
278 277 277 277 276 276 276 277 278 278 277 276 276 275 273 270 266 264 263 262 261 259 256 254 253 254 254 254 253 250 247 247 252 257 259 261 262 258 249 242 241 246 257 267 269 264 258 257 258 256 252 243 232 231 230 225 220 222 225 229 233 237 242 254 266 277 284 285 284 284 284 291 305 316 320 319 314 310 307 306 304 303 302 302 303